Other Surface Observations
Issued by NWS Tucson, AZ

Home | Current Version | Previous Version | Text Only | Print | Product List | Glossary On
Versions: 1 2 3 4 5 6 7 8 9 10 11 12 13 14 15 16 17 18 19 20 21 22 23 24 25 26 27 28 29 30 31 32 33 34 35 36 37 38 39 40 41 42 43 44 45 46 47 48 49 50
000
SXUS55 KTWC 310015
OSOTWC

WEATHER ROUNDUP FOR SOUTHEAST ARIZONA
NATIONAL WEATHER SERVICE TUCSON AZ
515 PM MST MON MAY 30 2016

AZZ504>506-514-310115-
LOCATION       SKY/WX    TMP DP  RH WIND       PRES   REMARKS
TUCSON         SUNNY     93  18   6 W16G24    29.84F
DAVIS-MONTHAN  SUNNY     91  16   6 W10G16    29.82F
CHILDRENS PARK N/A      N/A N/A   7 W8                PIMA CO DEQ
ALVERNON/22ND  N/A       93 N/A N/A W7                PIMA CO DEQ
CHERRY/GLENN   N/A      N/A N/A N/A N/A               PIMA CO DEQ
TANGERINE      N/A       92 N/A N/A W8                PIMA CO DEQ
CONTL RANCH    N/A       94  17   6 W6                PIMA CO DEQ
GRANT/1ST      N/A       92  19   7 W8                PIMA CO DEQ
CRAYCROFT/22ND N/A       92  19   7 N/A               PIMA CO DEQ
GOLFLINKS/KOLB N/A      N/A N/A N/A N/A               PIMA CO DEQ
AJO/12TH       N/A       93  20   7 SW7               PIMA CO DEQ
SAGUARO EAST   N/A       32 -21   8 W13               PIMA CO DEQ
FAIRGROUNDS    N/A       90 N/A N/A W13               PIMA CO DEQ
SAGUARO        N/A       93  20   7 W8G17             *SABINO CYN
SAN CARLOS     N/A       93  20   7 SW9G17            *SAN CARLOS
GREEN VALLEY   N/A       90  21   8 SW12              PIMA CO DEQ
HORSE CAMP CYN N/A       87  24  10 SW16G24           *ARAVAIPA CYN
RINCON MTNS    N/A       69  18  14 SW5G17            *NR MANNING CAMP
$$

AZZ509>511-310115-
LOCATION       SKY/WX    TMP DP  RH WIND       PRES   REMARKS
SAFFORD        SUNNY     93  28  10 W10G21    29.79F
STRAY HORSE    N/A       68  22  17 W6G18             *
TRAIL CABIN    N/A       78  28  16 SW7G18            *N OF GRANVILLE
BLACK HILLS    NOT AVBL
DRY LAKE       N/A       72  32  23 W4G10             *NATANES MTNS
NOON CREEK     N/A       83  29  14 NE5G12            *PINALENO MTNS
COLUMBINE      N/A       58  24  27 SW7G17            *PINALENO MTNS
GUTHRIE        N/A       79  30  17 W5G20             *SW OF GUTHRIE
$$

AZZ502-503-513-310115-
LOCATION       SKY/WX    TMP DP  RH WIND       PRES   REMARKS
NOGALES        SUNNY     87  27  11 S15G28    29.91F
SELLS          N/A       91  11   5 NE7G17            *
SASABE         N/A       88  13   6 SW13G22           *ALTAR VLY
HOPKINS        N/A       76  23  14 W9G19             *SANTA RITA MTNS
CARR CYN       N/A       81  35  19 NW4G12            *W OF HEREFORD
$$

AZZ507-508-512-310115-
LOCATION       SKY/WX    TMP DP  RH WIND       PRES   REMARKS
SIERRA VISTA   MOSUNNY   83  29  14 SW14G26   29.97S
DOUGLAS        MOSUNNY   86  39  19 SW15      29.90F
EMPIRE MTNS    NOT AVBL
MULESHOE RANCH N/A       86  21   9 W6G22             *PRESERVE
HEADQUARTERS   N/A       82  33  17 W10G23            *CHIRICAHUA MTNS
$$

.............................NOTES.............................
THIS IS AN AUTOMATED COLLECTIVE WITH MINIMAL QUALITY CONTROL.
PIMA CO DEQ SITES HAVE NONSTANDARD WIND SENSOR HEIGHTS.
PIMA CO DEQ SITES DO NOT REPORT WIND GUSTS.
* INDICATES WIND SENSORS LOCATED AT 20 FEET INSTEAD OF 33 FEET.
..............................KEY..............................
SKY/WX - SKY CONDITION/WEATHER
TMP    - TEMPERATURE IN FAHRENHEIT
DP     - DEWPOINT IN FAHRENHEIT
RH     - RELATIVE HUMIDITY IN PERCENT
WIND   - DIRECTION AND SPEED IN MILES PER HOUR (MPH)
VRB    - VARIABLE WIND DIRECTION
PRES   - MEAN SEA LEVEL PRESSURE IN INCHES OF MERCURY
         F - FALLING PRESSURE   R - RISING PRESSURE
         S - STEADY PRESSURE
VSB    - VISIBILITY IN MILES
HX     - HEAT INDEX IN FAHRENHEIT
WCI    - WIND CHILL INDEX IN FAHRENHEIT
N/A    - NOT AVAILABLE
AFB    - AIR FORCE BASE
         DAVIS-MONTHAN IS DAVIS-MONTHAN AIR FORCE BASE
CYN    - CANYON
MTNS   - MOUNTAINS
NCA    - NATIONAL CONSERVATION AREA
NR     - NEAR
VLY    - VALLEY
CONTL  - CONTINENTAL
PIMA CO DEQ - PIMA COUNTY DEPT OF ENVIRONMENTAL QUALITY



USA.gov is the U.S. government's official web portal to all federal, state and local government web resources and services.